SCOUT X-4 R/B, 871

Orbit data source: Space-Track

SCOUT X-4 R/B, 871 is space debris in LEO originally from a launch on Tue, 25 Aug 1964 UTC launched from the Air Force Western Test Range (AFWTR). Debris objects in space refer to the collection of defunct objects orbiting the Earth. Examples of debris include non-operational satellites, rocket bodies, and fragments generated from explosions, collisions, or faulty payload assembly.

Loading next visibility...
Identifier
871, 1964-051B
Orbit
LEO
Country
Flag of USUS
Related business
Manufacturer
ABL
Mission
Spacecraft
Bus & Motor
ALTAIR, Unknown motor
Mass
33 kg wet, 33 kg dry
Launch date (UTC)
1964-08-25 (61 years ago)
Launch vehicle
Unknown
Launch site
Air Force Western Test Range (AFWTR)
Object type
Payload
Rocket body
Debris
Shape & HBR
Cyl, 0.8 m
Radar Cross Section
0.687 m², Medium (>0.1 m² and < 1m²)

Expand to show TLE details & history
Last TLE update: 11 hours ago

TLE from 11 hours ago
0 SCOUT X-4 R/B
1 00871U 64051B   25259.29988447  .00000262  00000-0  16523-3 0  9996
2 00871  79.8970  10.4132 0087082 156.1260 204.3978 14.00517974106520
Epoch: 2025-09-16T07:11Z
TLE epoch observation values (Epoch: 2025-09-16T07:11:50.018Z)
Latitude
-0.00007°
Longitude
-93.03739°
Altitude
952.603 km
Speed
7.346 km/s
True Right ascension
00h 41m 39s
True Declination
0° 00' 00"
Sunlit
Object was in full shadow at epoch
Visualization orbit readout
Latitude
Unknown
Longitude
Unknown
Altitude
Unknown
Speed
Unknown
Apparent Right ascension
Unknown
Apparent Declination
Unknown
Sunlit
N/A
Visualization observer readout
Local Sidereal Time
10:53:25
Azimuth
Unknown
Elevation
Unknown
Doppler factor
Unknown
Orbital elements
Apogee altitude
952.544 km
Perigee altitude
825.972 km
Semi-major axis
7,267.395 km
Eccentricity
0.00871
Inclination
79.897°
RAAN
10.4132°
Arg. of periapsis
156.126°
True anomaly
203.98965°
Mean anomaly
204.3978°
Eccentric anomaly
204.19332°
Mean motion
3.50328 °/min
Orbital period
102.76 mins
BSTAR
0.00016523
Loading maneuver chart data...
Computing Atmospheric mass density...
Loading historical data...
Loading historical data...
Loading historical data...
Loading historical data...
Loading historical data...
Loading historical data...
Loading historical data...

Documentation

Showing up to 5 results
|